www.pogodaiklimat.ru

Погода и климат >> Архив погоды >> Испания >> Альбасете


ПОГОДА в Альбасете

  • Прогноз погоды в Альбасете
  • Монитор погоды в Альбасете

АРХИВ ПОГОДЫ в Альбасете

Время (UTC), дата Ветер
(напр.,м/с)
 
Видим.   Явления Облачность Т
(С)
Тd
(С)
f
(%)
Тe
(С)
Тes
(С)
Комфортность P
(гПа)
Po
(гПа)
Тmin
(С)
Tmax
(С)
R
(мм)
R24
(мм)
S
(см)
18 13.09 СВ 6 20 км в посл. час гроза {ливн. осадки} 9/4 630 м
[Cb cap Ac As Ci sp]
+16.7 +16.2 97 +16 +16 1022.3 942.0 +18.2 22
21 13.09 СВ 7 20 км {гроза} 8/4 1000 м
[Cu Sc Ac As Ci sp]
+16.5 +14.3 87 +15 +15 1025.1 944.5
00 14.09 С 3 10 км {дождь} 9/6 300 м
[Cu Sc Ac cuf]
+15.5 +15.2 98 +15 +15 1024.5 943.7 0.4
03 14.09 В 8 15 км 8/3 1000 м
[Sc diur, vesp Ac cuf Ci ing]
+15.8 +12.9 83 +14 +14 1022.7 942.1
06 14.09 Ю 3 20 км 10/3 1000 м
[Cu Sc Ac As]
+15.1 +13.0 87 +15 +15 1022.0 941.2 +14.2 1
09 14.09 ЮВ 4 25 км 10/3 600 м
[Cu Sc Ac As]
+19.4 +13.8 70 +21 +22 комфорт 1021.5 941.9
12 14.09 СВ 3 25 км 10/10 600 м
[Cu med, cong]
+19.7 +14.5 72 +22 +22 комфорт 1022.2 942.7
15 14.09 В 5 25 км 10/10 600 м
[Cu Sc]
+20.7 +16.1 75 +24 +24 комфорт 1019.4 940.4
18 14.09 В 4 20 км 10/10 300 м
[Cu Sc]
+19.0 +16.2 84 +20 +20 1019.9 940.4 +21.7
21 14.09 С 2 20 км 9/9 300 м
[Sc diur, vesp]
+17.9 +15.7 87 +19 +19 1021.5 941.6
00 15.09 В 5 20 км 9/9 300 м
[Sc diur, vesp]
+18.7 +16.5 87 +19 +19 1020.6 941.0
03 15.09 В 4 15 км 9/9 300 м
[St]
+18.6 +16.8 89 +20 +20 1019.2 939.7
06 15.09 СВ 4 8000 м дымка 9/9 300 м
[St]
+17.3 +16.3 94 +17 +17 1019.4 939.5 +17.2
09 15.09 С 2 2500 м дымка 10/10 300 м
[St]
+17.6 +17.3 98 +18 +18 1020.7 940.8
12 15.09 СВ 6 12 км {морось} 9/9 600 м
[Cu Sc]
+20.6 +18.2 86 +24 +25 комфорт 1019.1 940.2 0.2
15 15.09 В 7 20 км 3/3 600 м
[Cu Sc]
+23.6 +18.0 71 +28 +29 душно 1016.6 938.6
18 15.09 В 5 20 км 5/3 600 м
[Cu Sc Ac As]
+21.7 +17.9 79 +26 +26 душно 1017.1 938.6 +24.3 0.2
21 15.09 В 1 15 км 8/1 1500 м
[Cu Sc Ac cuf]
+19.1 +17.1 88 +22 +22 комфорт 1019.0 939.7
00 16.09 ЮВ 2 10 км 6/6 300 м
[Cu Sc]
+18.2 +17.2 94 +19 +19 1019.4 939.8
03 16.09 СВ 1 10 км 8/3 600 м
[Cu Sc Ac cuf]
+17.4 +16.9 97 +18 +18 1018.2 938.5
06 16.09 ЮВ 1 7000 м дымка 8/8 300 м
[Cu Sc]
+17.6 +17.3 98 +19 +19 1018.6 938.9 +16.9
09 16.09 ЮЗ 2 15 км 6/6 300 м
[Cu Sc]
+21.4 +16.6 74 +25 +28 комфорт 1018.8 940.0
12 16.09 ЮЗ 2 15 км 4/4 1000 м
[Cu Sc]
+25.7 +15.7 54 +29 +38 душно 1016.9 939.3
15 16.09 В 2 15 км 6/6 1000 м
[Cu Sc]
+27.3 +14.3 45 +30 +33 душно 1015.0 937.9
18 16.09 Ю 2 20 км 3/3 1500 м
[Cu hum]
+24.1 +16.9 64 +28 +28 душно 1015.4 937.6 +27.8
21 16.09 ЮВ 3 20 км ясно +20.1 +17.7 86 +24 +24 комфорт 1017.9 938.9
00 17.09 ЮВ 3 20 км ясно +18.3 +17.5 95 +19 +19 1018.2 938.7
03 17.09 ЮВ 2 10 км 3/3 1500 м
[Sc]
+17.6 +17.1 97 +18 +18 1017.5 937.9
06 17.09 ЮВ 2 10 км 3/3 1500 м
[Sc]
+16.2 +15.9 98 +16 +16 1018.3 938.2 +16.2
09 17.09 СВ 3 20 км 3/0
[Ac As]
+22.1 +18.5 80 +27 +32 душно 1016.6 938.3
12 17.09 ЮВ 5 20 км 5/0
[Ac As]
+27.3 +14.7 46 +30 +34 душно 1014.5 937.5
15 17.09 ЮВ 5 30 км 5/0
[Ac As Cs]
+28.1 +13.2 40 +30 +33 жарко 1012.1 935.4
18 17.09 СВ 3 10 км в посл. час дождь 8/8 2000 м
[Cb cap Ac cuf]
+18.9 +16.7 87 +21 +21 комфорт 1014.9 935.8 +28.5 0.6
21 17.09 ЮВ 2 30 км 5/3 600 м
[Cu Sc Ac cuf]
+17.4 +15.6 89 +18 +18 1016.3 936.7
00 18.09 ЮВ 3 15 км в посл. час ливневой дождь {гроза} 4/1 600 м
[Cu Sc Ac cuf]
+17.0 +16.0 94 +17 +17 1016.4 936.7 0.6
03 18.09 ЮЗ 2 6000 м дымка ясно +14.9 +14.7 99 +14 +14 1016.4 936.1
06 18.09 В 1 30 км ясно +13.0 +13.0 100 +13 +13 1017.1 936.2 +12.9 0.6
09 18.09 З 1 25 км ясно +19.0 +14.5 75 +21 +29 комфорт 1016.6 937.3
12 18.09 СЗ 2 25 км 1/1 1500 м
[Cu hum]
+26.5 +13.6 45 +29 +42 жарко 1014.2 937.0
15 18.09 В 1 20 км 4/1 1500 м
[Sc diur, vesp Ac trans Ci fib]
+28.3 +12.6 38 +30 +36 жарко 1012.2 935.5
18 18.09 СЗ 1 25 км 1/1 1500 м
[Cu Sc Ac As Ci fib]
+23.8 +15.0 58 +27 +27 жарко 1013.5 935.7 +29.0
21 18.09 Ю 3 30 км 4/0
[Ci fib]
+20.0 +14.6 71 +23 +23 комфорт 1016.1 937.1
00 19.09 ЮВ 3 25 км 1/0
[Ci fib]
+17.7 +16.2 91 +18 +18 1016.8 937.2
03 19.09 Ю 2 12 км ясно +16.7 +15.7 94 +17 +17 1016.6 936.8
06 19.09 В 2 8000 м дымка 3/0
[Ac trans]
+16.0 +15.4 96 +16 +16 1017.0 936.9 +15.7
09 19.09 ЮВ 3 10 км 1/0
[Ci fib]
+22.9 +15.5 63 +27 +33 душно 1016.1 937.9
12 19.09 ЮВ 4 20 км 1/1 1500 м
[Cu med, cong]
+26.6 +13.3 44 +29 +37 жарко 1014.5 937.3
15 19.09 ЮВ 4 20 км осадки на расстоянии 5/3 1500 м
[Cb cap Ac cast Ci sp]
+25.7 +13.2 46 +28 +31 жарко 1013.5 936.1
18 19.09 Ю 5 30 км 4/1 1500 м
[Cb cap Ac cast Ci sp]
+23.5 +14.2 56 +26 +26 жарко 1014.0 936.1 +27.8
21 19.09 Ю 3 15 км ясно +19.2 +13.6 70 +21 +21 комфорт 1017.0 937.7
00 20.09 В 3 10 км 5/0
[Cs]
+17.6 +15.9 90 +18 +18 1017.3 937.7
03 20.09 В 3 8000 м дымка 8/6 300 м
[St Ac cuf]
+17.1 +16.3 95 +17 +17 1017.1 937.4
06 20.09 В 4 10 км 8/4 600 м
[Cu Sc Ac As]
+17.0 +15.5 91 +17 +17 1017.3 937.5 +17.0
09 20.09 ЮВ 4 15 км 9/6 300 м
[Cu Sc Ac As]
+20.5 +16.1 76 +24 +24 комфорт 1016.7 937.9
12 20.09 ЮВ 6 15 км 9/9 600 м
[Cu Sc Ac cuf]
+23.2 +15.5 62 +27 +28 душно 1014.8 936.8
15 20.09 ЮВ 7 15 км 9/9 1000 м
[Cu Sc Ac cuf]
+24.2 +15.1 57 +27 +27 жарко 1012.9 935.3

 

Местоположение метеостанции Альбасете (Испания): широта 38.95 долгота -1.85 высота над уровнем моря 704 м.

В архиве по умолчанию представлена погода в Альбасете за последнюю неделю. Архивные данные за месяц целиком и за предыдущие месяцы, начиная с января 2011 года, Вы можете получить, выбрав интересующий диапазон дат из раскрывающегося списка и нажав кнопку "Ввод!".


*Определитесь, кто Вы:
робот инопланетянин человек

Внимание! Время в таблицах - всемирное. Для получения местного времени необходимо прибавить поправку, которая равна 1 ч.

Смотрите также архив погоды в соседних городах и на ближайших метеорологических станциях:

Погода в Альбасете (Испания) (7 км)
Погода в Хеллине (Испания) (47 км)
Погода в Екле (Испания) (71 км)
Погода в Сан-Клементе (Испания) (72 км)
Погода в Вильярродриго (Испания) (86 км)
Погода в Утьель - La Cubera (Испания) (88 км)
Погода в Сьеса - Парк де Бомберос (Испания) (90 км)
Погода в Пиносо (Испания) (93 км)
Погода в Каравака - Фуэнтес Дель (Испания) (95 км)
Погода в Томельосо (Испания) (103 км)

Пояснения к столбцам:

Ветер - указаны скорость ветра в м/с - средняя за 10 мин, порывы в срок и между сроками (в фигурных скобках) и направление, откуда дует ветер: С - северный, СВ - северо-восточный, В - восточный, ЮВ - юго-восточный, Ю - южный, ЮЗ - юго-западный, З - западный, СЗ - северо-западный.
Видимость - горизонтальная дальность видимости в метрах или километрах. При видимости от 1 до 10 км при отсутствии осадков обычно наблюдается дымка, при ухудшении видимости до 1 км и менее - туман. В сухую погоду видимость может ухудшаться дымом, пылью или мглою.
Явления - указаны атмосферные явления, наблюдавшиеся в срок или в последний час перед сроком; фигурными скобками обозначены явления, наблюдавшиеся между сроками (за 1-3 часа до срока); квадратными скобками обозначены град или гололедные отложения с указанием их диаметра в мм.
Облачность - указаны через наклонную черту общая и нижняя облачность в баллах и высота нижней границы облаков в метрах; квадратными скобками обозначены формы облаков: Ci - перистые, Cs - перисто-слоистые, Cc - перисто-кучевые, Ac - высококучевые, As - высокослоистые, Sc - слоисто-кучевые, Ns - слоисто-дождевые, Cu - кучевые, Cb - кучево-дождевые. Подробнее классификацию облаков см. в Атласе облаков (PDF).
T - Температура воздуха - температура, измеренная на высоте 2 м над землей.
Td - Температура точки росы - температура, при понижении до которой содержащийся в воздухе водяной пар достигнет насыщения.
f - Относительная влажность воздуха - влажноcть воздуха, измеренная на высоте 2 м над землей.
Te - Эффективная температура - температура, которую ощущает одетый по сезону человек в тени. Характеристика душности погоды. При расчете учитывается влияние влажности воздуха и скорости ветра на теплоощущения человека.
Tes - Эффективная температура на солнце - температура, которую ощущает человек, с поправкой на солнечный нагрев. Характеристика знойности погоды. Зависит от высоты солнца над горизонтом, облачности и скорости ветра. Ночью, в пасмурную погоду, а также при ветре 12 м/с и более поправка равна нулю.
P - Атмосферное давление - приведенное к уровню моря атмосферное давление.
Po - Атмосферное давление - измеренное на уровне метеостанции атмосферное давление.
Tmin - Минимальная температура - минимум температуры воздуха на высоте 2 м над землей.
Tmax - Максимальная температура - максимум температуры воздуха на высоте 2 м над землей.
R - Количество осадков - Количество выпавших осадков за период времени, мм. При наведении курсора мыши на число - период времени, за который выпало указанное количество осадков.
R24 - Количество осадков - Количество выпавших осадков за 24 часа, мм.
S - Снежный покров - Высота снежного покрова, см. При наведении курсора мыши на число - состояние снежного покрова и степень покрытия местности в баллах.